| time (UTC) | temp C | wind direction | speed KPH | gust KPH | rain 1hr cm | rain 24hr cm | rain mn cm | humidity % | barometer mb |
| 20260510190502 | 34 | 170 | 4.8 | 9.7 | 0.00 | 0.00 | 0.00 | 61 | 1012.2 |
| 20260510190045 | 34 | 0 | 0.0 | 6.4 | 0.00 | 0.00 | 0.00 | 61 | 1012.5 |
| 20260510190003 | 34 | 295 | 1.6 | 6.4 | 0.00 | 0.00 | 0.00 | 61 | 1012.4 |
| 20260510185502 | 34 | 248 | 1.6 | 8.0 | 0.00 | 0.00 | 0.00 | 64 | 1012.5 |
| 20260510185002 | 34 | 284 | 1.6 | 8.0 | 0.00 | 0.00 | 0.00 | 65 | 1012.5 |
| 20260510184549 | 33 | 0 | 0.0 | 3.2 | 0.00 | 0.00 | 0.00 | 67 | 1012.7 |
| 20260510184501 | 33 | 258 | 0.0 | 4.8 | 0.00 | 0.00 | 0.00 | 67 | 1012.5 |
| 20260510184003 | 33 | 146 | 0.0 | 3.2 | 0.00 | 0.00 | 0.00 | 69 | 1012.6 |
| 20260510183502 | 32 | 240 | 0.0 | 3.2 | 0.00 | 0.00 | 0.00 | 69 | 1012.5 |
| 20260510183053 | 32 | 0 | 0.0 | 8.0 | 0.00 | 0.00 | 0.00 | 68 | 1012.8 |
| 20260510183001 | 32 | 178 | 0.0 | 8.0 | 0.00 | 0.00 | 0.00 | 68 | 1012.7 |
| 20260510182501 | 32 | 266 | 0.0 | 8.0 | 0.00 | 0.00 | 0.00 | 70 | 1012.7 |
| 20260510182031 | 32 | 111 | 1.6 | 9.7 | 0.00 | 0.00 | 0.00 | 70 | 1012.8 |
| 20260510182020 | 32 | 165 | 0.0 | 9.7 | 0.00 | 0.00 | 0.00 | 70 | 1012.7 |
| 20260510181549 | 32 | 3 | 0.0 | 8.0 | 0.00 | 0.00 | 0.00 | 69 | 1012.9 |
| 20260510181003 | 32 | 16 | 0.0 | 9.7 | 0.00 | 0.00 | 0.00 | 70 | 1012.8 |
| 20260510180503 | 32 | 2 | 0.0 | 9.7 | 0.00 | 0.00 | 0.00 | 72 | 1012.7 |
| 20260510180056 | 32 | 0 | 0.0 | 6.4 | 0.00 | 0.00 | 0.00 | 70 | 1013.1 |
| 20260510180003 | 32 | 239 | 0.0 | 6.4 | 0.00 | 0.00 | 0.00 | 71 | 1012.9 |
| 20260510175502 | 32 | 4 | 0.0 | 6.4 | 0.00 | 0.00 | 0.00 | 72 | 1013.0 |
| 20260510175002 | 32 | 326 | 0.0 | 6.4 | 0.00 | 0.00 | 0.00 | 72 | 1013.0 |
| 20260510174555 | 31 | 333 | 0.0 | 6.4 | 0.00 | 0.00 | 0.00 | 72 | 1013.3 |
| 20260510174502 | 32 | 326 | 0.0 | 6.4 | 0.00 | 0.00 | 0.00 | 74 | 1013.1 |
| 20260510174002 | 31 | 100 | 0.0 | 6.4 | 0.00 | 0.00 | 0.00 | 74 | 1013.1 |
| 20260510173721 | 31 | 52 | 0.0 | 0.0 | 0.00 | 0.00 | 0.00 | 75 | 1013.2 |
| 20260510173053 | 31 | 0 | 0.0 | 4.8 | 0.00 | 0.00 | 0.00 | 76 | 1013.4 |
| 20260510173001 | 31 | 287 | 0.0 | 3.2 | 0.00 | 0.00 | 0.00 | 76 | 1013.2 |
| 20260510172501 | 31 | 154 | 0.0 | 3.2 | 0.00 | 0.00 | 0.00 | 75 | 1013.2 |
| 20260510172000 | 30 | 294 | 0.0 | 1.6 | 0.00 | 0.00 | 0.00 | 77 | 1013.4 |
| 20260510171745 | 30 | 227 | 0.0 | 1.6 | 0.00 | 0.00 | 0.00 | 78 | 1013.4 |
| 20260510171738 | 30 | 186 | 0.0 | 6.4 | 0.00 | 0.00 | 0.00 | 79 | 1013.5 |
| 20260510171557 | 30 | 0 | 0.0 | 4.8 | 0.00 | 0.00 | 0.00 | 78 | 1013.6 |
| 20260510170515 | 30 | 32 | 0.0 | 6.4 | 0.00 | 0.00 | 0.00 | 78 | 1013.3 |
| 20260510170059 | 30 | 0 | 0.0 | 6.4 | 0.00 | 0.00 | 0.00 | 78 | 1013.5 |
| 20260510170003 | 30 | 177 | 0.0 | 6.4 | 0.00 | 0.00 | 0.00 | 78 | 1013.4 |
| 20260510165502 | 30 | 204 | 0.0 | 6.4 | 0.00 | 0.00 | 0.00 | 77 | 1013.3 |
| 20260510165002 | 30 | 334 | 0.0 | 6.4 | 0.00 | 0.00 | 0.00 | 76 | 1013.2 |
| 20260510164603 | 30 | 0 | 0.0 | 4.8 | 0.00 | 0.00 | 0.00 | 77 | 1013.3 |
| 20260510164454 | 30 | 120 | 0.0 | 4.8 | 0.00 | 0.00 | 0.00 | 79 | 1013.0 |
| 20260510163955 | 30 | 90 | 0.0 | 6.4 | 0.00 | 0.00 | 0.00 | 79 | 1013.0 |
| 20260510163452 | 30 | 262 | 1.6 | 6.4 | 0.00 | 0.00 | 0.00 | 79 | 1013.1 |
| 20260510163216 | 30 | 52 | 0.0 | 6.4 | 0.00 | 0.00 | 0.00 | 79 | 1013.1 |
| 20260510163053 | 30 | 0 | 0.0 | 8.0 | 0.00 | 0.00 | 0.00 | 77 | 1013.3 |
| 20260510162451 | 30 | 18 | 0.0 | 6.4 | 0.00 | 0.00 | 0.00 | 79 | 1013.0 |
| 20260510162220 | 30 | 357 | 0.0 | 3.2 | 0.00 | 0.00 | 0.00 | 79 | 1012.9 |
| 20260510161950 | 30 | 214 | 0.0 | 3.2 | 0.00 | 0.00 | 0.00 | 80 | 1013.0 |
| 20260510161551 | 29 | 214 | 0.0 | 3.2 | 0.00 | 0.00 | 0.00 | 79 | 1013.1 |
| 20260510160939 | 30 | 256 | 0.0 | 3.2 | 0.00 | 0.00 | 0.00 | 80 | 1012.9 |
| 20260510160439 | 29 | 206 | 0.0 | 3.2 | 0.00 | 0.00 | 0.00 | 80 | 1012.9 |
| 20260510160057 | 29 | 0 | 0.0 | 4.8 | 0.00 | 0.00 | 0.00 | 79 | 1013.1 |
| 20260510155935 | 29 | 291 | 0.0 | 4.8 | 0.00 | 0.00 | 0.00 | 78 | 1012.9 |
| 20260510155435 | 30 | 92 | 0.0 | 4.8 | 0.00 | 0.00 | 0.00 | 80 | 1012.9 |
| 20260510154935 | 29 | 119 | 0.0 | 1.6 | 0.00 | 0.00 | 0.00 | 81 | 1012.8 |
| 20260510154602 | 28 | 0 | 0.0 | 1.6 | 0.00 | 0.00 | 0.00 | 81 | 1013.0 |
| 20260510154435 | 28 | 44 | 0.0 | 1.6 | 0.00 | 0.00 | 0.00 | 83 | 1012.8 |
| 20260510153930 | 28 | 241 | 0.0 | 1.6 | 0.00 | 0.00 | 0.00 | 83 | 1012.9 |
| 20260510153429 | 28 | 275 | 0.0 | 1.6 | 0.00 | 0.00 | 0.00 | 83 | 1013.0 |
| 20260510153053 | 28 | 0 | 0.0 | 1.6 | 0.00 | 0.00 | 0.00 | 83 | 1013.2 |
| 20260510152929 | 28 | 193 | 0.0 | 1.6 | 0.00 | 0.00 | 0.00 | 84 | 1012.8 |
| 20260510152429 | 27 | 314 | 0.0 | 4.8 | 0.00 | 0.00 | 0.00 | 86 | 1012.9 |
| 20260510151929 | 27 | 146 | 0.0 | 4.8 | 0.00 | 0.00 | 0.00 | 86 | 1012.9 |
| 20260510151546 | 27 | 0 | 0.0 | 4.8 | 0.00 | 0.00 | 0.00 | 86 | 1013.3 |
| 20260510151429 | 27 | 147 | 0.0 | 3.2 | 0.00 | 0.00 | 0.00 | 87 | 1013.2 |
| 20260510150928 | 27 | 197 | 0.0 | 3.2 | 0.00 | 0.00 | 0.00 | 87 | 1013.1 |
| 20260510150429 | 27 | 188 | 0.0 | 1.6 | 0.00 | 0.00 | 0.00 | 87 | 1013.1 |
| 20260510150045 | 26 | 0 | 0.0 | 1.6 | 0.00 | 0.00 | 0.00 | 87 | 1013.2 |
| 20260510145929 | 27 | 329 | 0.0 | 0.0 | 0.00 | 0.00 | 0.00 | 87 | 1013.0 |
| 20260510145429 | 26 | 329 | 0.0 | 3.2 | 0.00 | 0.00 | 0.00 | 88 | 1013.1 |
| 20260510144929 | 26 | 291 | 0.0 | 3.2 | 0.00 | 0.00 | 0.00 | 89 | 1013.0 |
| 20260510144547 | 26 | 0 | 0.0 | 3.2 | 0.00 | 4.78 | 0.00 | 89 | 1013.3 |
| 20260510144428 | 26 | 352 | 0.0 | 1.6 | 0.00 | 0.00 | 0.00 | 89 | 1013.0 |
| 20260510143929 | 26 | 260 | 0.0 | 3.2 | 0.00 | 0.05 | 0.00 | 90 | 1013.0 |
| 20260510143647 | 26 | 303 | 0.0 | 3.2 | 0.00 | 0.15 | 0.00 | 90 | 1013.1 |
| 20260510143055 | 25 | 0 | 0.0 | 4.8 | 0.00 | 4.78 | 0.00 | 89 | 1013.3 |
| 20260510142929 | 26 | 205 | 0.0 | 1.6 | 0.00 | 0.56 | 0.00 | 90 | 1013.2 |
| 20260510142429 | 26 | 148 | 0.0 | 1.6 | 0.00 | 1.35 | 0.00 | 90 | 1013.1 |
| 20260510141928 | 25 | 236 | 0.0 | 1.6 | 0.00 | 2.26 | 0.00 | 91 | 1013.2 |
| 20260510141551 | 25 | 0 | 0.0 | 4.8 | 0.00 | 4.78 | 0.00 | 90 | 1013.3 |
| 20260510141429 | 25 | 207 | 0.0 | 3.2 | 0.00 | 3.05 | 0.00 | 91 | 1013.2 |
| 20260510140928 | 25 | 204 | 0.0 | 3.2 | 0.00 | 4.04 | 0.00 | 92 | 1013.2 |
| 20260510140429 | 25 | 262 | 0.0 | 1.6 | 0.00 | 4.75 | 0.00 | 92 | 1013.1 |
| 20260510140052 | 25 | 0 | 0.0 | 0.0 | 0.00 | 4.78 | 0.00 | 92 | 1013.3 |
| 20260510135929 | 25 | 50 | 0.0 | 0.0 | 0.00 | 4.78 | 0.00 | 92 | 1013.0 |
| 20260510135429 | 25 | 50 | 0.0 | 0.0 | 0.00 | 4.78 | 0.00 | 92 | 1013.1 |
| 20260510134929 | 25 | 50 | 0.0 | 0.0 | 0.00 | 4.78 | 0.00 | 92 | 1012.9 |
| 20260510134552 | 25 | 0 | 0.0 | 6.4 | 0.00 | 4.83 | 0.00 | 92 | 1013.1 |
| 20260510134429 | 25 | 50 | 0.0 | 6.4 | 0.00 | 4.78 | 0.00 | 92 | 1013.0 |
| 20260510133928 | 25 | 50 | 0.0 | 6.4 | 0.00 | 4.83 | 0.00 | 92 | 1012.9 |
| 20260510133648 | 25 | 236 | 0.0 | 0.0 | 0.00 | 4.83 | 0.00 | 93 | 1012.9 |
| 20260510133052 | 24 | 0 | 0.0 | 0.0 | 0.00 | 4.83 | 0.00 | 93 | 1013.1 |
| 20260510132944 | 24 | 26 | 0.0 | 0.0 | 0.00 | 4.83 | 0.00 | 94 | 1012.8 |
| 20260510132939 | 25 | 236 | 0.0 | 0.0 | 0.00 | 4.83 | 0.00 | 94 | 1012.9 |
| 20260510132932 | 25 | 236 | 0.0 | 0.0 | 0.00 | 4.83 | 0.00 | 93 | 1012.9 |
| 20260510131603 | 24 | 0 | 0.0 | 0.0 | 0.00 | 4.83 | 0.00 | 94 | 1013.0 |
| 20260510131427 | 24 | 26 | 0.0 | 0.0 | 0.00 | 4.83 | 0.00 | 94 | 1012.7 |
| 20260510130912 | 24 | 26 | 0.0 | 0.0 | 0.00 | 4.83 | 0.00 | 94 | 1012.8 |
| 20260510130411 | 24 | 26 | 0.0 | 0.0 | 0.00 | 4.83 | 0.00 | 94 | 1012.7 |
| 20260510130049 | 23 | 0 | 0.0 | 0.0 | 0.00 | 4.83 | 0.00 | 94 | 1012.9 |
| 20260510125907 | 24 | 26 | 0.0 | 0.0 | 0.00 | 4.83 | 0.00 | 94 | 1012.6 |
| 20260510125406 | 24 | 26 | 0.0 | 0.0 | 0.00 | 4.83 | 0.00 | 95 | 1012.5 |
| 20260510125124 | 24 | 26 | 0.0 | 0.0 | 0.00 | 4.83 | 0.00 | 95 | 1012.4 |
| 20260510124608 | 23 | 0 | 0.0 | 0.0 | 0.00 | 4.83 | 0.00 | 94 | 1012.6 |
| 20260510124404 | 24 | 26 | 0.0 | 0.0 | 0.00 | 4.83 | 0.00 | 95 | 1012.5 |
| 20260510123903 | 23 | 26 | 0.0 | 0.0 | 0.00 | 4.83 | 0.00 | 95 | 1012.3 |
| 20260510123624 | 23 | 26 | 0.0 | 0.0 | 0.00 | 4.83 | 0.00 | 95 | 1012.4 |
| 20260510123049 | 23 | 0 | 0.0 | 0.0 | 0.00 | 4.83 | 0.00 | 94 | 1012.5 |
| 20260510122902 | 23 | 26 | 0.0 | 0.0 | 0.00 | 4.83 | 0.00 | 95 | 1012.3 |
| 20260510122402 | 23 | 26 | 0.0 | 0.0 | 0.00 | 4.83 | 0.00 | 95 | 1012.4 |
| 20260510121903 | 23 | 26 | 0.0 | 0.0 | 0.00 | 4.83 | 0.00 | 95 | 1012.3 |
| 20260510121547 | 23 | 0 | 0.0 | 0.0 | 0.00 | 4.83 | 0.00 | 95 | 1012.4 |
| 20260510121402 | 23 | 26 | 0.0 | 0.0 | 0.00 | 4.83 | 0.00 | 95 | 1012.1 |
| 20260510120902 | 23 | 26 | 0.0 | 0.0 | 0.00 | 4.83 | 0.00 | 95 | 1012.1 |
| 20260510120402 | 23 | 26 | 0.0 | 0.0 | 0.00 | 4.83 | 0.00 | 95 | 1012.0 |
| 20260510120047 | 23 | 0 | 0.0 | 1.6 | 0.00 | 4.83 | 0.00 | 95 | 1012.1 |
| 20260510115903 | 23 | 26 | 0.0 | 0.0 | 0.00 | 4.83 | 0.00 | 95 | 1011.8 |
| 20260510115402 | 23 | 338 | 0.0 | 0.0 | 0.00 | 4.83 | 0.00 | 95 | 1011.7 |
| 20260510114903 | 23 | 338 | 0.0 | 0.0 | 0.00 | 4.83 | 0.00 | 95 | 1011.7 |
| 20260510114545 | 23 | 0 | 0.0 | 0.0 | 0.00 | 5.03 | 0.00 | 94 | 1011.9 |
| 20260510114402 | 23 | 338 | 0.0 | 0.0 | 0.00 | 4.83 | 0.00 | 95 | 1011.7 |
| 20260510113900 | 23 | 338 | 0.0 | 0.0 | 0.00 | 4.83 | 0.00 | 95 | 1011.6 |
| 20260510113400 | 23 | 338 | 0.0 | 0.0 | 0.00 | 4.85 | 0.00 | 95 | 1011.4 |
| 20260510113050 | 23 | 0 | 0.0 | 0.0 | 0.00 | 5.03 | 0.00 | 94 | 1011.6 |
| 20260510112902 | 23 | 338 | 0.0 | 0.0 | 0.00 | 4.85 | 0.00 | 95 | 1011.4 |
| 20260510112401 | 23 | 338 | 0.0 | 0.0 | 0.00 | 4.93 | 0.00 | 95 | 1011.3 |
| 20260510111901 | 23 | 338 | 0.0 | 0.0 | 0.00 | 4.98 | 0.00 | 95 | 1011.4 |
| 20260510111603 | 23 | 0 | 0.0 | 0.0 | 0.00 | 5.03 | 0.00 | 94 | 1011.8 |
| 20260510111401 | 23 | 338 | 0.0 | 0.0 | 0.00 | 5.00 | 0.00 | 94 | 1011.6 |
| 20260510110900 | 23 | 338 | 0.0 | 0.0 | 0.00 | 5.00 | 0.00 | 94 | 1011.4 |
| 20260510110401 | 23 | 338 | 0.0 | 0.0 | 0.00 | 5.03 | 0.00 | 94 | 1011.6 |
| 20260510110049 | 23 | 0 | 0.0 | 0.0 | 0.00 | 5.03 | 0.00 | 94 | 1011.6 |
| 20260510105903 | 23 | 338 | 0.0 | 0.0 | 0.00 | 5.03 | 0.00 | 94 | 1011.4 |
| 20260510105403 | 23 | 338 | 0.0 | 0.0 | 0.00 | 5.03 | 0.00 | 94 | 1011.3 |
| 20260510104902 | 23 | 338 | 0.0 | 0.0 | 0.00 | 5.03 | 0.00 | 94 | 1011.2 |
| 20260510104601 | 23 | 0 | 0.0 | 0.0 | 0.00 | 5.03 | 0.00 | 93 | 1011.6 |
| 20260510104402 | 23 | 338 | 0.0 | 0.0 | 0.00 | 5.03 | 0.00 | 94 | 1011.2 |
| 20260510104123 | 23 | 338 | 0.0 | 0.0 | 0.00 | 5.03 | 0.00 | 94 | 1011.3 |
| 20260510103402 | 23 | 338 | 0.0 | 0.0 | 0.00 | 5.03 | 0.00 | 94 | 1011.3 |
| 20260510103046 | 23 | 0 | 0.0 | 0.0 | 0.00 | 5.03 | 0.00 | 93 | 1011.7 |
| 20260510102902 | 23 | 338 | 0.0 | 0.0 | 0.00 | 5.03 | 0.00 | 94 | 1011.4 |
| 20260510102403 | 23 | 338 | 0.0 | 0.0 | 0.00 | 5.03 | 0.00 | 94 | 1011.2 |
| 20260510101903 | 23 | 338 | 0.0 | 0.0 | 0.00 | 5.03 | 0.00 | 94 | 1011.2 |
| 20260510101545 | 23 | 0 | 0.0 | 0.0 | 0.00 | 5.03 | 0.00 | 93 | 1011.5 |
| 20260510101402 | 23 | 338 | 0.0 | 0.0 | 0.00 | 5.03 | 0.00 | 94 | 1011.2 |
| 20260510100902 | 23 | 338 | 0.0 | 0.0 | 0.00 | 5.03 | 0.00 | 94 | 1011.3 |
| 20260510100402 | 23 | 338 | 0.0 | 0.0 | 0.00 | 5.03 | 0.00 | 94 | 1011.2 |
| 20260510100050 | 23 | 0 | 0.0 | 0.0 | 0.00 | 5.03 | 0.00 | 93 | 1011.4 |
| 20260510095903 | 23 | 338 | 0.0 | 0.0 | 0.00 | 5.03 | 0.00 | 94 | 1011.1 |
| 20260510095403 | 23 | 338 | 0.0 | 0.0 | 0.00 | 5.03 | 0.00 | 94 | 1011.1 |
| 20260510095120 | 23 | 338 | 0.0 | 0.0 | 0.00 | 5.03 | 0.00 | 94 | 1011.1 |
| 20260510094550 | 23 | 0 | 0.0 | 0.0 | 0.00 | 5.03 | 0.00 | 93 | 1011.4 |
| 20260510094403 | 23 | 338 | 0.0 | 0.0 | 0.00 | 5.03 | 0.00 | 94 | 1011.1 |
| 20260510094148 | 23 | 338 | 0.0 | 0.0 | 0.00 | 5.03 | 0.00 | 94 | 1011.1 |
| 20260510093403 | 23 | 338 | 0.0 | 0.0 | 0.00 | 5.03 | 0.00 | 94 | 1011.2 |
| 20260510093049 | 23 | 0 | 0.0 | 0.0 | 0.00 | 5.03 | 0.00 | 94 | 1011.5 |
| 20260510092903 | 23 | 338 | 0.0 | 0.0 | 0.00 | 5.03 | 0.00 | 94 | 1011.2 |
| 20260510092403 | 23 | 338 | 0.0 | 0.0 | 0.00 | 5.03 | 0.00 | 94 | 1011.2 |
| 20260510092125 | 23 | 338 | 0.0 | 0.0 | 0.00 | 5.03 | 0.00 | 94 | 1011.1 |
| 20260510091555 | 23 | 0 | 0.0 | 0.0 | 0.00 | 5.03 | 0.00 | 93 | 1011.4 |
| 20260510091400 | 23 | 338 | 0.0 | 0.0 | 0.00 | 5.03 | 0.00 | 94 | 1011.2 |
| 20260510090859 | 23 | 338 | 0.0 | 0.0 | 0.00 | 5.03 | 0.00 | 93 | 1011.3 |
| 20260510090359 | 23 | 338 | 0.0 | 0.0 | 0.00 | 5.03 | 0.00 | 93 | 1011.3 |
| 20260510085855 | 23 | 338 | 0.0 | 0.0 | 0.00 | 5.03 | 0.00 | 94 | 1011.2 |
| 20260510085354 | 23 | 338 | 0.0 | 0.0 | 0.00 | 5.03 | 0.00 | 93 | 1011.2 |
| 20260510084849 | 23 | 338 | 0.0 | 0.0 | 0.00 | 5.03 | 0.00 | 93 | 1011.2 |
| 20260510084554 | 23 | 0 | 0.0 | 0.0 | 0.00 | 5.03 | 0.00 | 93 | 1011.5 |
| 20260510084342 | 23 | 338 | 0.0 | 0.0 | 0.00 | 5.03 | 0.00 | 93 | 1011.2 |
| 20260510083836 | 23 | 338 | 0.0 | 0.0 | 0.00 | 5.03 | 0.00 | 93 | 1011.3 |
| 20260510083336 | 23 | 338 | 0.0 | 0.0 | 0.00 | 5.03 | 0.00 | 93 | 1011.4 |
| 20260510083051 | 23 | 0 | 0.0 | 0.0 | 0.00 | 5.03 | 0.00 | 93 | 1011.9 |
| 20260510082830 | 23 | 338 | 0.0 | 0.0 | 0.00 | 5.03 | 0.00 | 93 | 1011.6 |
| 20260510082329 | 23 | 338 | 0.0 | 0.0 | 0.00 | 5.03 | 0.00 | 93 | 1011.7 |
| 20260510081829 | 23 | 338 | 0.0 | 0.0 | 0.00 | 5.03 | 0.00 | 93 | 1011.8 |
| 20260510081550 | 23 | 0 | 0.0 | 0.0 | 0.00 | 5.03 | 0.00 | 92 | 1012.1 |
| 20260510081329 | 23 | 338 | 0.0 | 0.0 | 0.00 | 5.03 | 0.00 | 93 | 1011.9 |
| 20260510080829 | 23 | 338 | 0.0 | 0.0 | 0.00 | 5.03 | 0.00 | 93 | 1012.0 |
| 20260510080329 | 23 | 338 | 0.0 | 0.0 | 0.00 | 5.03 | 0.00 | 93 | 1012.1 |
| 20260510080058 | 23 | 0 | 0.0 | 0.0 | 0.00 | 5.03 | 0.00 | 92 | 1012.5 |
| 20260510075828 | 24 | 338 | 0.0 | 0.0 | 0.00 | 5.03 | 0.00 | 93 | 1012.1 |
| 20260510075329 | 24 | 338 | 0.0 | 0.0 | 0.00 | 5.03 | 0.00 | 93 | 1012.2 |
| 20260510074830 | 24 | 338 | 0.0 | 0.0 | 0.00 | 5.03 | 0.00 | 93 | 1012.3 |
| 20260510074550 | 23 | 0 | 0.0 | 0.0 | 0.00 | 5.03 | 0.00 | 92 | 1012.4 |
| 20260510074329 | 24 | 338 | 0.0 | 0.0 | 0.00 | 5.03 | 0.00 | 92 | 1012.4 |
| 20260510073829 | 24 | 338 | 0.0 | 0.0 | 0.00 | 5.03 | 0.00 | 92 | 1012.3 |
| 20260510073329 | 24 | 338 | 0.0 | 0.0 | 0.00 | 5.03 | 0.00 | 92 | 1012.2 |
| 20260510073051 | 23 | 0 | 0.0 | 0.0 | 0.00 | 5.03 | 0.00 | 92 | 1012.5 |
| 20260510072828 | 24 | 338 | 0.0 | 0.0 | 0.00 | 5.03 | 0.00 | 92 | 1012.3 |
| 20260510072331 | 24 | 338 | 0.0 | 0.0 | 0.00 | 5.03 | 0.00 | 92 | 1012.3 |
| 20260510071830 | 24 | 338 | 0.0 | 1.6 | 0.00 | 5.03 | 0.00 | 92 | 1012.3 |
| 20260510071545 | 23 | 0 | 0.0 | 1.6 | 0.00 | 5.03 | 0.00 | 92 | 1012.4 |
| 20260510071331 | 24 | 338 | 0.0 | 1.6 | 0.00 | 5.03 | 0.00 | 92 | 1012.2 |
| 20260510070830 | 24 | 142 | 0.0 | 1.6 | 0.00 | 5.03 | 0.00 | 92 | 1012.2 |
| 20260510070329 | 24 | 316 | 0.0 | 1.6 | 0.00 | 5.03 | 0.00 | 92 | 1012.2 |
| 20260510070057 | 23 | 0 | 0.0 | 1.6 | 0.00 | 5.03 | 0.00 | 92 | 1012.2 |
| 20260510065828 | 24 | 289 | 0.0 | 1.6 | 0.00 | 5.03 | 0.00 | 92 | 1012.0 |
| 20260510065329 | 24 | 230 | 0.0 | 0.0 | 0.00 | 5.03 | 0.00 | 92 | 1012.0 |
| 20260510064829 | 24 | 230 | 0.0 | 3.2 | 0.00 | 5.03 | 0.00 | 92 | 1012.1 |
| 20260510064607 | 24 | 0 | 0.0 | 4.8 | 0.00 | 5.03 | 0.00 | 91 | 1012.3 |
| 20260510064329 | 24 | 230 | 0.0 | 6.4 | 0.00 | 5.03 | 0.00 | 92 | 1012.0 |
| 20260510063828 | 24 | 224 | 0.0 | 6.4 | 0.00 | 5.03 | 0.00 | 92 | 1012.2 |
| 20260510063812 | 24 | 100 | 0.0 | 0.0 | 0.00 | 5.03 | 0.00 | 92 | 1012.1 |
| 20260510063052 | 24 | 0 | 0.0 | 1.6 | 0.00 | 5.03 | 0.00 | 91 | 1012.4 |
| 20260510062829 | 24 | 211 | 0.0 | 0.0 | 0.00 | 5.03 | 0.00 | 92 | 1012.3 |
| 20260510062330 | 24 | 205 | 0.0 | 0.0 | 0.00 | 5.03 | 0.00 | 92 | 1012.2 |
| 20260510061830 | 24 | 226 | 0.0 | 0.0 | 0.00 | 5.03 | 0.00 | 91 | 1012.1 |
| 20260510061552 | 24 | 0 | 0.0 | 0.0 | 0.00 | 5.03 | 0.00 | 91 | 1012.4 |
| 20260510061330 | 24 | 226 | 0.0 | 0.0 | 0.00 | 5.03 | 0.00 | 91 | 1012.3 |
| 20260510060831 | 24 | 226 | 0.0 | 1.6 | 0.00 | 5.03 | 0.00 | 91 | 1012.2 |
| 20260510060330 | 25 | 226 | 0.0 | 1.6 | 0.00 | 5.03 | 0.00 | 91 | 1012.4 |
| 20260510060059 | 25 | 300 | 0.0 | 0.0 | 0.00 | 5.03 | 0.00 | 91 | 1012.2 |
| 20260510060055 | 24 | 0 | 0.0 | 1.6 | 0.00 | 5.03 | 0.00 | 91 | 1012.5 |
| 20260510055329 | 25 | 283 | 0.0 | 0.0 | 0.00 | 5.03 | 0.00 | 91 | 1012.3 |
| 20260510055107 | 25 | 283 | 0.0 | 0.0 | 0.00 | 5.03 | 0.00 | 90 | 1012.4 |
| 20260510055026 | 25 | 283 | 0.0 | 0.0 | 0.00 | 5.03 | 0.00 | 91 | 1012.3 |
| 20260510054549 | 24 | 0 | 0.0 | 0.0 | 0.00 | 5.03 | 0.00 | 90 | 1012.4 |
| 20260510053828 | 25 | 283 | 0.0 | 0.0 | 0.00 | 5.03 | 0.00 | 90 | 1012.4 |
| 20260510053329 | 25 | 283 | 0.0 | 4.8 | 0.00 | 5.03 | 0.00 | 90 | 1012.4 |
| 20260510053050 | 25 | 0 | 0.0 | 3.2 | 0.00 | 5.03 | 0.00 | 89 | 1012.5 |
| 20260510052828 | 25 | 235 | 0.0 | 4.8 | 0.00 | 5.03 | 0.00 | 90 | 1012.5 |
| 20260510052330 | 25 | 56 | 0.0 | 3.2 | 0.00 | 5.03 | 0.00 | 90 | 1012.5 |
| 20260510051831 | 25 | 288 | 0.0 | 6.4 | 0.00 | 5.03 | 0.00 | 90 | 1012.5 |
| 20260510051605 | 25 | 0 | 0.0 | 6.4 | 0.00 | 5.03 | 0.00 | 89 | 1012.5 |
| 20260510051330 | 25 | 32 | 0.0 | 6.4 | 0.00 | 5.03 | 0.00 | 89 | 1012.2 |
| 20260510050830 | 25 | 26 | 0.0 | 3.2 | 0.00 | 5.03 | 0.00 | 89 | 1012.4 |
| 20260510050330 | 25 | 79 | 0.0 | 3.2 | 0.00 | 5.03 | 0.00 | 89 | 1012.3 |
| 20260510050055 | 25 | 0 | 0.0 | 3.2 | 0.00 | 5.03 | 0.00 | 89 | 1012.5 |
| 20260510045828 | 25 | 6 | 0.0 | 3.2 | 0.00 | 5.03 | 5.03 | 89 | 1012.4 |
| 20260510045328 | 25 | 250 | 0.0 | 0.0 | 0.00 | 5.03 | 5.03 | 89 | 1012.4 |
| 20260510044828 | 25 | 250 | 0.0 | 1.6 | 0.00 | 5.05 | 5.03 | 89 | 1012.4 |
| 20260510044608 | 25 | 0 | 0.0 | 1.6 | 0.00 | 5.08 | 5.03 | 88 | 1012.6 |
| 20260510044329 | 25 | 250 | 0.0 | 1.6 | 0.00 | 5.05 | 5.03 | 88 | 1012.3 |
| 20260510043829 | 25 | 144 | 0.0 | 4.8 | 0.00 | 5.08 | 5.03 | 88 | 1012.4 |
| 20260510043328 | 25 | 144 | 0.0 | 4.8 | 0.00 | 5.08 | 5.03 | 88 | 1012.5 |
| 20260510043052 | 25 | 0 | 0.0 | 0.0 | 0.00 | 5.08 | 5.03 | 87 | 1012.6 |
| 20260510042828 | 25 | 158 | 0.0 | 1.6 | 0.00 | 5.08 | 5.03 | 87 | 1012.5 |
| 20260510042331 | 25 | 159 | 0.0 | 0.0 | 0.00 | 5.08 | 5.03 | 87 | 1012.4 |
| 20260510041831 | 25 | 159 | 0.0 | 0.0 | 0.00 | 5.08 | 5.03 | 87 | 1012.5 |
| 20260510041617 | 25 | 159 | 0.0 | 0.0 | 0.00 | 5.08 | 5.03 | 86 | 1012.5 |
| 20260510041604 | 25 | 0 | 0.0 | 0.0 | 0.00 | 5.08 | 5.03 | 86 | 1012.7 |
| 20260510040830 | 25 | 72 | 0.0 | 0.0 | 0.00 | 5.08 | 5.03 | 86 | 1012.5 |
| 20260510040554 | 25 | 72 | 0.0 | 3.2 | 0.00 | 5.08 | 5.03 | 86 | 1012.4 |
| 20260510040056 | 25 | 0 | 0.0 | 1.6 | 0.00 | 5.08 | 5.03 | 85 | 1012.6 |
| 20260510035828 | 26 | 72 | 0.0 | 3.2 | 0.00 | 5.08 | 5.03 | 86 | 1012.5 |
| 20260510035329 | 26 | 336 | 0.0 | 3.2 | 0.00 | 5.08 | 5.03 | 85 | 1012.5 |
| 20260510034829 | 26 | 268 | 0.0 | 1.6 | 0.00 | 5.08 | 5.03 | 85 | 1012.4 |
| 20260510034559 | 25 | 0 | 0.0 | 3.2 | 0.00 | 5.08 | 5.03 | 85 | 1012.5 |
| 20260510034329 | 26 | 268 | 0.0 | 1.6 | 0.00 | 5.08 | 5.03 | 85 | 1012.2 |
| 20260510033829 | 26 | 246 | 0.0 | 0.0 | 0.00 | 5.08 | 5.03 | 85 | 1012.2 |
| 20260510033329 | 26 | 246 | 0.0 | 0.0 | 0.00 | 5.08 | 5.03 | 85 | 1012.0 |
| 20260510033054 | 25 | 0 | 0.0 | 0.0 | 0.00 | 5.08 | 5.03 | 84 | 1012.2 |
| 20260510033051 | 26 | 246 | 0.0 | 0.0 | 0.00 | 5.08 | 5.03 | 84 | 1012.0 |
| 20260510032331 | 26 | 246 | 0.0 | 1.6 | 0.00 | 5.08 | 5.03 | 84 | 1012.0 |
| 20260510031830 | 26 | 246 | 0.0 | 3.2 | 0.00 | 5.08 | 5.03 | 84 | 1011.9 |
| 20260510031557 | 25 | 0 | 0.0 | 3.2 | 0.00 | 5.08 | 5.03 | 83 | 1012.0 |
| 20260510031330 | 26 | 205 | 0.0 | 3.2 | 0.00 | 5.08 | 5.03 | 84 | 1011.8 |
| 20260510030831 | 26 | 229 | 0.0 | 0.0 | 0.00 | 5.08 | 5.03 | 83 | 1011.7 |
| 20260510030330 | 26 | 229 | 0.0 | 0.0 | 0.00 | 5.08 | 5.03 | 83 | 1011.6 |
| 20260510030105 | 26 | 0 | 0.0 | 1.6 | 0.00 | 5.08 | 5.03 | 82 | 1011.8 |
| 20260510025829 | 26 | 97 | 0.0 | 1.6 | 0.00 | 5.08 | 5.03 | 82 | 1011.7 |
| 20260510025329 | 26 | 181 | 0.0 | 1.6 | 0.00 | 5.08 | 5.03 | 82 | 1011.6 |
| 20260510024829 | 26 | 330 | 0.0 | 0.0 | 0.00 | 5.08 | 5.03 | 82 | 1011.3 |
| 20260510024553 | 26 | 0 | 0.0 | 1.6 | 0.00 | 5.08 | 5.03 | 81 | 1011.7 |
| 20260510024329 | 26 | 330 | 0.0 | 1.6 | 0.00 | 5.08 | 5.03 | 81 | 1011.3 |
| 20260510023829 | 26 | 247 | 0.0 | 6.4 | 0.00 | 5.08 | 5.03 | 80 | 1011.2 |
| 20260510023328 | 26 | 341 | 0.0 | 6.4 | 0.00 | 5.08 | 5.03 | 80 | 1011.1 |
| 20260510023053 | 26 | 0 | 0.0 | 3.2 | 0.00 | 5.08 | 5.03 | 79 | 1011.5 |
| 20260510022828 | 26 | 146 | 0.0 | 1.6 | 0.00 | 5.08 | 5.03 | 79 | 1011.0 |
| 20260510022539 | 26 | 224 | 0.0 | 3.2 | 0.00 | 5.08 | 5.03 | 78 | 1011.0 |
| 20260510022051 | 26 | 263 | 0.0 | 9.7 | 0.00 | 5.08 | 5.03 | 78 | 1010.8 |
| 20260510021552 | 26 | 0 | 0.0 | 9.7 | 0.00 | 5.08 | 5.03 | 77 | 1011.0 |
| 20260510021312 | 27 | 358 | 0.0 | 9.7 | 0.00 | 5.08 | 5.03 | 78 | 1010.9 |
| 20260510020812 | 27 | 348 | 0.0 | 4.8 | 0.00 | 5.08 | 5.03 | 77 | 1010.9 |
| 20260510020313 | 27 | 201 | 0.0 | 8.0 | 0.00 | 5.08 | 5.03 | 77 | 1010.7 |
| 20260510020051 | 26 | 56 | 0.0 | 9.7 | 0.00 | 5.08 | 5.03 | 76 | 1011.0 |
| 20260510015807 | 27 | 276 | 0.0 | 8.0 | 0.00 | 5.08 | 5.03 | 77 | 1010.7 |
| 20260510015306 | 27 | 60 | 0.0 | 4.8 | 0.00 | 5.08 | 5.03 | 76 | 1010.5 |
| 20260510014802 | 27 | 103 | 0.0 | 4.8 | 0.00 | 5.08 | 5.03 | 76 | 1010.3 |
| 20260510014556 | 27 | 0 | 0.0 | 4.8 | 0.00 | 5.08 | 5.03 | 75 | 1010.6 |
| 20260510014303 | 27 | 76 | 0.0 | 3.2 | 0.00 | 5.08 | 5.03 | 76 | 1010.2 |
| 20260510013805 | 27 | 269 | 0.0 | 4.8 | 0.00 | 5.08 | 5.03 | 76 | 1010.3 |
| 20260510013800 | 27 | 143 | 1.6 | 9.7 | 0.00 | 5.08 | 5.03 | 76 | 1010.2 |
| 20260510013053 | 27 | 56 | 0.0 | 9.7 | 0.00 | 5.08 | 5.03 | 75 | 1010.5 |
| 20260510012814 | 27 | 250 | 3.2 | 9.7 | 0.00 | 5.08 | 5.03 | 76 | 1010.0 |
| 20260510012300 | 27 | 337 | 0.0 | 4.8 | 0.00 | 5.08 | 5.03 | 76 | 1010.2 |
| 20260510011801 | 27 | 215 | 0.0 | 4.8 | 0.00 | 5.08 | 5.03 | 76 | 1010.2 |
| 20260510011549 | 27 | 214 | 0.0 | 4.8 | 0.00 | 5.08 | 5.03 | 75 | 1010.4 |
| 20260510011301 | 27 | 241 | 1.6 | 4.8 | 0.00 | 5.08 | 5.03 | 76 | 1010.1 |
| 20260510010801 | 27 | 194 | 0.0 | 9.7 | 0.00 | 5.08 | 5.03 | 75 | 1010.0 |
| 20260510010301 | 27 | 283 | 3.2 | 9.7 | 0.00 | 5.08 | 5.03 | 75 | 1009.9 |
| 20260510010052 | 27 | 39 | 0.0 | 8.0 | 0.00 | 5.08 | 5.03 | 74 | 1010.2 |
| 20260510005801 | 27 | 233 | 0.0 | 8.0 | 0.00 | 5.08 | 5.03 | 75 | 1009.9 |
| 20260510005301 | 27 | 328 | 1.6 | 12.9 | 0.00 | 5.08 | 5.03 | 74 | 1009.8 |
| 20260510004802 | 27 | 251 | 1.6 | 12.9 | 0.00 | 5.08 | 5.03 | 74 | 1009.8 |
| 20260510004749 | 27 | 205 | 1.6 | 12.9 | 0.00 | 5.08 | 5.03 | 74 | 1009.8 |
| 20260510004547 | 27 | 0 | 0.0 | 14.5 | 0.00 | 5.08 | 5.03 | 74 | 1010.0 |
| 20260510003802 | 28 | 337 | 0.0 | 12.9 | 0.00 | 5.08 | 5.03 | 74 | 1009.7 |
| 20260510003549 | 28 | 349 | 1.6 | 8.0 | 0.00 | 5.08 | 5.03 | 74 | 1009.7 |
| 20260510003057 | 27 | 0 | 0.0 | 12.9 | 0.00 | 5.08 | 5.03 | 73 | 1009.9 |
| 20260510002814 | 28 | 191 | 0.0 | 14.5 | 0.00 | 5.08 | 5.03 | 74 | 1009.7 |
| 20260510002747 | 28 | 300 | 3.2 | 14.5 | 0.00 | 5.08 | 5.03 | 73 | 1009.6 |
| 20260510002033 | 28 | 153 | 3.2 | 8.0 | 0.00 | 5.08 | 5.03 | 73 | 1009.5 |
| 20260510001554 | 28 | 0 | 0.0 | 8.0 | 0.00 | 5.08 | 5.03 | 72 | 1009.7 |
| 20260510001302 | 28 | 42 | 0.0 | 9.7 | 0.00 | 5.08 | 5.03 | 73 | 1009.3 |
| 20260510001020 | 28 | 84 | 0.0 | 9.7 | 0.00 | 5.08 | 5.03 | 73 | 1009.4 |
| 20260510000315 | 28 | 233 | 0.0 | 9.7 | 0.00 | 5.08 | 5.03 | 72 | 1009.4 |
| 20260510000058 | 28 | 0 | 0.0 | 8.0 | 0.00 | 5.08 | 5.03 | 71 | 1009.7 |
| 20260509235802 | 28 | 345 | 0.0 | 9.7 | 0.00 | 5.08 | 5.03 | 71 | 1009.3 |
| 20260509235301 | 28 | 263 | 0.0 | 11.3 | 0.00 | 5.08 | 5.03 | 70 | 1009.4 |
| 20260509234801 | 28 | 195 | 3.2 | 11.3 | 0.00 | 5.08 | 5.03 | 70 | 1009.3 |
| 20260509234602 | 28 | 124 | 1.6 | 9.7 | 0.00 | 5.08 | 5.03 | 69 | 1009.6 |
| 20260509234301 | 28 | 243 | 1.6 | 9.7 | 0.00 | 5.08 | 5.03 | 70 | 1009.3 |
| 20260509233801 | 28 | 325 | 1.6 | 8.0 | 0.00 | 5.08 | 5.03 | 69 | 1009.2 |
| 20260509233301 | 28 | 38 | 0.0 | 1.6 | 0.00 | 5.08 | 5.03 | 70 | 1009.3 |
| 20260509233054 | 28 | 0 | 0.0 | 11.3 | 0.00 | 5.08 | 5.03 | 70 | 1009.5 |
| 20260509232801 | 29 | 337 | 0.0 | 11.3 | 0.00 | 5.08 | 5.03 | 70 | 1009.3 |
| 20260509232301 | 29 | 353 | 1.6 | 12.9 | 0.00 | 5.08 | 5.03 | 70 | 1009.3 |
| 20260509231802 | 29 | 243 | 3.2 | 12.9 | 0.00 | 5.08 | 5.03 | 70 | 1009.1 |
| 20260509231609 | 28 | 252 | 1.6 | 14.5 | 0.00 | 5.08 | 5.03 | 69 | 1009.5 |
| 20260509231302 | 29 | 153 | 0.0 | 11.3 | 0.00 | 5.08 | 5.03 | 70 | 1009.2 |
| 20260509230802 | 29 | 143 | 1.6 | 9.7 | 0.00 | 5.08 | 5.03 | 70 | 1009.2 |
| 20260509230302 | 29 | 355 | 0.0 | 9.7 | 0.00 | 5.08 | 5.03 | 70 | 1009.1 |
| 20260509230103 | 29 | 0 | 0.0 | 9.7 | 0.00 | 5.08 | 5.03 | 70 | 1009.4 |
| 20260509225802 | 29 | 338 | 0.0 | 9.7 | 0.00 | 5.08 | 5.03 | 71 | 1009.1 |
| 20260509225305 | 29 | 124 | 3.2 | 16.1 | 0.00 | 5.08 | 5.03 | 71 | 1009.1 |
| 20260509225244 | 29 | 116 | 1.6 | 16.1 | 0.00 | 5.08 | 5.03 | 71 | 1009.2 |
| 20260509224551 | 29 | 0 | 3.2 | 14.5 | 0.00 | 5.08 | 5.03 | 71 | 1009.5 |
| 20260509224303 | 29 | 9 | 6.4 | 14.5 | 0.00 | 5.08 | 5.03 | 71 | 1009.3 |
| 20260509223803 | 30 | 185 | 1.6 | 20.9 | 0.00 | 5.08 | 5.03 | 71 | 1009.2 |
| 20260509223303 | 30 | 186 | 3.2 | 20.9 | 0.00 | 5.08 | 5.03 | 69 | 1009.2 |
| 20260509223051 | 30 | 0 | 0.0 | 4.8 | 0.00 | 5.08 | 5.03 | 67 | 1009.4 |
| 20260509222802 | 30 | 216 | 0.0 | 6.4 | 0.00 | 5.08 | 5.03 | 67 | 1009.1 |
| 20260509222306 | 30 | 90 | 0.0 | 6.4 | 0.00 | 5.08 | 5.03 | 67 | 1009.0 |
| 20260509221755 | 31 | 253 | 0.0 | 1.6 | 0.00 | 5.08 | 5.03 | 67 | 1009.1 |
| 20260509221549 | 31 | 0 | 0.0 | 3.2 | 0.00 | 5.08 | 5.03 | 66 | 1009.4 |
| 20260509221248 | 31 | 272 | 0.0 | 3.2 | 0.00 | 5.08 | 5.03 | 67 | 1009.2 |
| 20260509221003 | 31 | 214 | 0.0 | 3.2 | 0.00 | 5.08 | 5.03 | 66 | 1009.1 |
| 20260509220241 | 31 | 57 | 0.0 | 1.6 | 0.00 | 5.08 | 5.03 | 66 | 1009.0 |
| 20260509220050 | 31 | 0 | 0.0 | 1.6 | 0.00 | 5.08 | 5.03 | 66 | 1009.4 |
| 20260509215738 | 31 | 231 | 0.0 | 3.2 | 0.00 | 5.08 | 5.03 | 65 | 1009.0 |
| 20260509215239 | 31 | 282 | 0.0 | 3.2 | 0.00 | 5.08 | 5.03 | 66 | 1009.1 |
| 20260509214739 | 31 | 62 | 0.0 | 1.6 | 0.00 | 5.08 | 5.03 | 65 | 1009.2 |
| 20260509214545 | 31 | 0 | 0.0 | 1.6 | 0.00 | 5.08 | 5.03 | 65 | 1009.4 |
| 20260509214238 | 32 | 191 | 0.0 | 1.6 | 0.00 | 5.08 | 5.03 | 65 | 1009.0 |
| 20260509214001 | 32 | 288 | 0.0 | 0.0 | 0.00 | 5.08 | 5.03 | 64 | 1009.0 |
| 20260509213502 | 32 | 288 | 0.0 | 3.2 | 0.00 | 5.08 | 5.03 | 64 | 1009.0 |
| 20260509213049 | 32 | 0 | 0.0 | 1.6 | 0.00 | 5.08 | 5.03 | 63 | 1009.4 |
| 20260509212739 | 32 | 288 | 0.0 | 3.2 | 0.00 | 5.08 | 5.03 | 63 | 1009.1 |
| 20260509212232 | 32 | 288 | 0.0 | 6.4 | 0.00 | 5.08 | 5.03 | 63 | 1009.1 |
| 20260509211729 | 32 | 197 | 0.0 | 6.4 | 0.00 | 5.08 | 5.03 | 63 | 1009.2 |
| 20260509211552 | 32 | 0 | 0.0 | 6.4 | 0.00 | 5.08 | 5.03 | 61 | 1009.5 |
| 20260509211230 | 33 | 207 | 0.0 | 0.0 | 0.00 | 5.08 | 5.03 | 62 | 1009.2 |
| 20260509210729 | 33 | 207 | 0.0 | 0.0 | 0.00 | 5.08 | 5.03 | 64 | 1009.0 |
| 20260509210230 | 33 | 207 | 0.0 | 0.0 | 0.00 | 5.08 | 5.03 | 63 | 1009.1 |
| 20260509210105 | 32 | 0 | 0.0 | 1.6 | 0.00 | 5.08 | 5.03 | 63 | 1009.4 |
| 20260509205729 | 32 | 207 | 0.0 | 1.6 | 0.00 | 5.08 | 5.03 | 63 | 1009.3 |
| 20260509205228 | 33 | 205 | 0.0 | 1.6 | 0.00 | 5.08 | 5.03 | 61 | 1009.2 |
| 20260509204948 | 33 | 207 | 0.0 | 0.0 | 0.00 | 5.08 | 5.03 | 61 | 1009.3 |
| 20260509204550 | 33 | 0 | 0.0 | 0.0 | 0.00 | 5.08 | 5.03 | 62 | 1009.7 |
| 20260509204231 | 33 | 21 | 0.0 | 0.0 | 0.00 | 5.08 | 5.03 | 60 | 1009.4 |
| 20260509203730 | 33 | 21 | 0.0 | 0.0 | 0.00 | 5.08 | 5.03 | 61 | 1009.4 |
| 20260509203244 | 33 | 21 | 0.0 | 0.0 | 0.00 | 5.08 | 5.03 | 62 | 1009.5 |
| 20260509203059 | 33 | 0 | 0.0 | 1.6 | 0.00 | 5.08 | 5.03 | 62 | 1009.8 |
| 20260509202730 | 33 | 21 | 0.0 | 1.6 | 0.00 | 5.08 | 5.03 | 62 | 1009.5 |
| 20260509202231 | 33 | 325 | 0.0 | 1.6 | 0.00 | 5.08 | 5.03 | 61 | 1009.4 |
| 20260509202015 | 33 | 114 | 0.0 | 0.0 | 0.00 | 5.08 | 5.03 | 59 | 1009.5 |
| 20260509201557 | 33 | 0 | 0.0 | 0.0 | 0.00 | 5.08 | 5.03 | 59 | 1009.8 |
| 20260509201230 | 33 | 99 | 0.0 | 0.0 | 0.00 | 5.08 | 5.03 | 59 | 1009.6 |
| 20260509200730 | 33 | 99 | 0.0 | 1.6 | 0.00 | 5.08 | 5.03 | 62 | 1009.7 |
| 20260509200231 | 33 | 99 | 0.0 | 1.6 | 0.00 | 5.08 | 5.03 | 61 | 1009.7 |
| 20260509200052 | 33 | 0 | 0.0 | 0.0 | 0.00 | 5.08 | 5.03 | 62 | 1010.1 |
| 20260509195729 | 33 | 196 | 0.0 | 0.0 | 0.00 | 5.08 | 5.03 | 63 | 1009.7 |
| 20260509195229 | 33 | 196 | 0.0 | 0.0 | 0.00 | 5.08 | 5.03 | 62 | 1009.8 |
| 20260509194728 | 33 | 134 | 0.0 | 0.0 | 0.00 | 5.08 | 5.03 | 61 | 1009.9 |
| 20260509194547 | 33 | 0 | 0.0 | 1.6 | 0.00 | 5.08 | 5.03 | 60 | 1010.2 |
| 20260509194230 | 33 | 134 | 0.0 | 0.0 | 0.00 | 5.08 | 5.03 | 63 | 1010.0 |
| 20260509193729 | 32 | 72 | 0.0 | 0.0 | 0.00 | 5.08 | 5.03 | 63 | 1010.1 |
| 20260509193229 | 32 | 72 | 0.0 | 0.0 | 0.00 | 5.08 | 5.03 | 64 | 1010.3 |
| 20260509193053 | 32 | 0 | 0.0 | 0.0 | 0.00 | 5.08 | 5.03 | 64 | 1010.6 |
| 20260509192729 | 32 | 72 | 0.0 | 0.0 | 0.00 | 5.08 | 5.03 | 64 | 1010.4 |
| 20260509192229 | 32 | 72 | 0.0 | 0.0 | 0.00 | 5.08 | 5.03 | 65 | 1010.4 |
| 20260509191729 | 32 | 72 | 0.0 | 0.0 | 0.00 | 5.08 | 5.03 | 65 | 1010.4 |
| 20260509191553 | 32 | 0 | 0.0 | 0.0 | 0.00 | 5.08 | 5.03 | 65 | 1010.7 |
| 20260509191228 | 32 | 72 | 0.0 | 0.0 | 0.00 | 5.08 | 5.03 | 66 | 1010.4 |